Location: Culleoka
(33.1312°N, 96.4919°W)
Time: 13:05:12
(UTC+00:00)

DELTA 2 R/B (1) - Pass Details

Date: 08 December 2021
Orbit: 791 x 802 km, 39.6° (Epoch: 28 January)

Event Time Altitude Azimuth Distance (km) Brightness Sun altitude
Exits shadow 12:12:16 18° 302° (WNW) 1,846 4.9 -13.3°
Maximum altitude 12:16:06 46° 8° (N) 1,053 4.1 -12.6°
Drops below altitude 10° 12:21:24 10° 82° (E) 2,348 7.1 -11.5°
Sets 12:23:59 0° 88° (E) 3,278 8.2 -11.0°
